weather.gov     
National Weather Service

Regional Weather Roundup
NWS Homepage
This page is being discontinued on March 12, 2014.
The same data is available at this site. Please update your bookmarks.
Thank you, and we apologize for the inconvenience.
Please send an email to SR-SRH.Webmaster@noaa.gov with any concerns.


Current Version
Previous Version:    01  02  03  04  05  06  07  08  09  10  11  12  13  14  15  16  17  18  19  20  21  22  23  24  25  26  
[Printable]
484
ASUS44 KMOB 200010
RWRMOB
REGIONAL WEATHER ROUNDUP
NATIONAL WEATHER SERVICE MOBILE AL
700 PM CDT SAT APR 19 2014

NOTE: "FAIR" INDICATES FEW OR NO CLOUDS BELOW 12,000 FEET WITH NO
      SIGNIFICANT WEATHER AND/OR OBSTRUCTIONS TO VISIBILITY.

  * THESE STATIONS ARE PART OF THE UNIVERSITY OF SOUTH ALABAMA
    MESONET AND ARE NOT UNDER NWS OR FAA QUALITY CONTROL.

ALZ061>064-200100-
COASTAL ALABAMA

CITY           SKY/WX    TMP DP  RH WIND       PRES   REMARKS
MOBILE REG APT CLEAR     74  49  41 N9        30.07R
6HR MIN TEMP:  74; 6HR MAX TEMP:  79;

BROOKLEY FIELD CLEAR     74  49  41 N10       30.06R
6HR MIN TEMP:  74; 6HR MAX TEMP:  80;

USA CAMPUS*      N/A     75  46  35 CALM      30.05R
DOG RIVER*     NOT AVBL


CITY           SKY/WX    TMP DP  RH WIND       PRES   REMARKS
MOUNT VERNON*    N/A     73  48  40 CALM      30.06R
SARALAND*      NOT AVBL
BAY MINETTE*   NOT AVBL
LOXLEY*        NOT AVBL
ROBERTSDALE*   NOT AVBL
FAIRHOPE*      NOT AVBL
ELBERTA*       NOT AVBL
FOLEY*         NOT AVBL
GRAND BAY*       N/A     75  50  41 NW5       30.04R
DAUPHIN ISLND* NOT AVBL
BON SCOUR NWR* NOT AVBL
GULF SHORES    CLEAR     74  49  42 N6        30.04R

$$

ALZ051>060-200100-
INTERIOR SOUTHWEST AND SOUTH CENTRAL ALABAMA

CITY           SKY/WX    TMP DP  RH WIND       PRES   REMARKS
GREENVILLE     CLOUDY    68  55  63 NE5       30.07R
6HR MIN TEMP:  68; 6HR MAX TEMP:  73;

EVERGREEN      MOCLDY    72  53  51 N7        30.07R
6HR MIN TEMP:  72; 6HR MAX TEMP:  79;

CASTLEBERRY*   NOT AVBL
ATMORE*          N/A     72  54  53 VRB13     30.07R
DIXIE*         NOT AVBL
ANDALUSIA/OPP  CLOUDY    68  56  65 E6        30.07R
6HR MIN TEMP:  68; 6HR MAX TEMP:  76;

ANDALUSIA*     NOT AVBL
FLORALA APT    CLOUDY    65  56  72 NE9       30.08R
6HR MIN TEMP:  65; 6HR MAX TEMP:  70; 6HR PCP: TRACE;

FLORALA*         N/A     64  55  72 N6        30.04R

$$

FLZ001>006-200100-
WESTERN FLORIDA PANHANDLE

CITY           SKY/WX    TMP DP  RH WIND       PRES   REMARKS
PENSACOLA      CLOUDY    75  51  43 N9        30.04R
6HR MIN TEMP:  74; 6HR MAX TEMP:  79;

NAS PENSACOLA  CLOUDY    74  52  46 N8G18     30.04R
6HR MIN TEMP:  73; 6HR MAX TEMP:  79;

MILTON         CLOUDY    71  53  52 NE6       30.05R
6HR MIN TEMP:  71; 6HR MAX TEMP:  77;

WHTNG S FIELD  CLOUDY    73  54  51 NE10      30.05R
6HR MIN TEMP:  73; 6HR MAX TEMP:  81;



CITY           SKY/WX    TMP DP  RH WIND       PRES   REMARKS
WALNUT HILL*   NOT AVBL
JAY*           NOT AVBL
DUKE FIELD     CLOUDY    67  56  67 NE10G18   30.06R
CRESTVIEW      CLOUDY    67  56  67 NE10      30.07R
6HR MIN TEMP:  67; 6HR MAX TEMP:  76;

VALPARAISO     MOCLDY    69  57  67 NE12      30.05R
6HR MIN TEMP:  69; 6HR MAX TEMP:  76;

DESTIN         CLOUDY    69  56  62 N10       30.04R
6HR MIN TEMP:  69; 6HR MAX TEMP:  76;


$$

MSZ076-079-200100-
INTERIOR SOUTHEAST MISSISSIPPI

CITY           SKY/WX    TMP DP  RH WIND       PRES   REMARKS
LEAKESVILLE*     N/A     75  45  33 N2        30.07R
AGRICOLA*      NOT AVBL

$$

MARINE OBSERVATIONS

STATION/POSITION TIME  TEMP    WIND        PRES    WAVE
                       AIR SEA DIR/SP/G            HT/PER
                 (UTC) (F)     (DEG/KT/KT) (MB)    (FT/S)
PASCAGOULA       0000   76     350/  9/ 11 1017.1R
PETIT BOIS ISLND 0000   72     340/ 11/ 13 1017.6S
GRAND BAY        2300   77     350/ 12     1018.0S
KATRINA CUT      2300   68     210/ 10     1018.0S
CEDAR POINT      2300   69      40/  8     1017.6R
E DAUPHIN ISLAND 0000   70      20/ 11/ 11 1017.3R
MIDDLE BAY LIGHT 2300   71      20/ 13     1016.9R
USCG MOBILE BAY  0000   76 63   30/ 10/ 12 1016.6R
STATE DOCKS      0000   74 63              1017.4R
MEAHER PARK      2300   76     350/  7     1017.3R
WEEKS BAY        2300   77                   N/A
FORT MORGAN      0000   71      30/ 19/ 19 1017.0R
12 S ORANGE BCH  0000   71 67   10/ 12/ 14 1017.1R   2/ 3
PENSACOLA BAY    0000   77 66   20/  6/  9 1017.3R
64 S DAUPHIN ISL 2250   68 71  290/ 14/ 16 1018.0R
67 S FORT MORGAN 2300   68                   N/A

$$

SELECTED LOCATIONS ACROSS THE REGION

CITY           SKY/WX    TMP DP  RH WIND       PRES   REMARKS
NEW ORLEANS    PTCLDY    73  55  53 NW7       30.09R
GULFPORT       CLEAR     78  50  37 N10       30.06R
PASCAGOULA AP  CLEAR     74  52  46 N3        30.05R
PASCAGOULA*      N/A     75  50  41 N2        30.05R
HATTIESBURG    CLEAR     76  51  41 N5        30.09R
LAUREL         CLEAR     73  50  43 N3        30.10S
MERIDIAN       CLEAR     72  47  40 N7        30.09R
JACKSON        PTCLDY    75  51  43 NW3       30.11R
MONTGOMERY     CLOUDY    70  54  56 NE6       30.08R
TROY           CLOUDY    64  57  78 N8        30.08R
KINSTON*       NOT AVBL
GENEVA*          N/A     64  55  72 NE7       30.08R
ASHFORD*       NOT AVBL
DOTHAN         CLOUDY    62  55  77 NE7       30.09R
PANAMA CITY    CLOUDY    65  55  70 N7        30.03R

$$





U.S. Dept. of Commerce
NOAA National Weather Service
1325 East West Highway
Silver Spring, MD 20910
E-mail: w-nws.webmaster@noaa.gov
Page last modified: May 16, 2007
NATIONAL WEATHER SERVICE: for Safety, for Work, for Fun - FOR LIFE